CW4403 Weather Reports


Display with metric or nautical units.
time (UTC)temp
F
wind
direction
speed
MPH
gust
MPH
rain 1hr
in
rain 24hr
in
rain mn
in
humidity
%
barometer
mb
20260506230052 67 194 0.0 4.0 0.00 0.10 0.10 84 1007.3
20260506224552 68 204 0.0 9.0 0.00 0.10 0.10 82 1007.4
20260506223057 68 208 2.0 10.0 0.00 0.10 0.10 82 1007.2
20260506221554 68 202 0.0 10.0 0.00 0.10 0.10 82 1007.2
20260506220050 68 180 1.0 10.0 0.00 0.10 0.10 82 1007.1
20260506214550 69 213 0.0 6.0 0.00 0.10 0.10 82 1007.1
20260506213048 68 178 1.0 7.0 0.00 0.10 0.10 83 1006.7
20260506211549 68 186 1.0 9.0 0.00 0.10 0.10 83 1007.0
20260506210048 69 232 2.0 8.0 0.00 0.10 0.10 82 1006.8
20260506204555 69 213 1.0 10.0 0.00 0.10 0.10 81 1006.9
20260506203046 68 147 3.0 18.0 0.00 0.10 0.10 85 1006.8
20260506201545 68 186 3.0 13.0 0.00 0.10 0.10 84 1006.7
20260506200057 66 228 1.0 9.0 0.00 0.10 0.10 86 1006.8
20260506194548 66 232 0.0 9.0 0.00 0.10 0.10 87 1006.9
20260506193040 65 175 1.0 10.0 0.00 0.10 0.10 88 1007.1
20260506191539 64 192 4.0 12.0 0.00 0.10 0.10 88 1007.1
20260506190039 64 206 0.0 12.0 0.00 0.10 0.10 89 1007.4
20260506184539 63 193 2.0 10.0 0.00 0.10 0.10 89 1007.4
20260506183038 63 238 4.0 13.0 0.00 0.10 0.10 89 1007.5
20260506181536 63 262 0.0 13.0 0.00 0.10 0.10 90 1007.7
20260506180032 62 201 3.0 13.0 0.00 0.10 0.10 90 1007.6
20260506174630 62 210 1.0 12.0 0.00 0.10 0.10 91 1007.8
20260506173028 62 159 2.0 11.0 0.00 0.10 0.10 91 1007.8
20260506171537 62 257 0.0 7.0 0.00 0.10 0.10 91 1007.9
20260506170026 62 140 0.0 9.0 0.02 0.10 0.10 91 1008.1
20260506164525 62 150 0.0 14.0 0.04 0.10 0.10 91 1008.0
20260506163022 62 192 2.0 11.0 0.05 0.10 0.10 91 1008.2
20260506161523 62 165 1.0 9.0 0.06 0.10 0.10 91 1008.2
20260506160032 62 217 2.0 7.0 0.06 0.08 0.08 90 1008.6
20260506154519 62 165 2.0 9.0 0.05 0.06 0.06 90 1009.1
20260506153018 62 188 0.0 9.0 0.04 0.04 0.04 89 1009.1
20260506151529 62 197 1.0 10.0 0.04 0.04 0.04 89 1009.0
20260506150025 62 242 1.0 10.0 0.02 0.02 0.02 87 1009.0
20260506144512 64 194 3.0 13.0 0.01 0.01 0.01 85 1009.1
20260506143030 64 176 2.0 14.0 0.00 0.00 0.00 84 1009.0
20260506141509 65 165 2.0 14.0 0.00 0.00 0.00 80 1009.1
20260506140010 66 151 3.0 15.0 0.00 0.00 0.00 76 1009.0
20260506134506 67 220 0.0 17.0 0.00 0.00 0.00 77 1008.8
20260506133006 66 159 4.0 15.0 0.00 0.00 0.00 78 1008.7
20260506131511 66 142 4.0 11.0 0.00 0.00 0.00 78 1008.9
20260506130004 66 208 3.0 19.0 0.00 0.00 0.00 78 1008.9
20260506124502 66 178 3.0 10.0 0.00 0.00 0.00 77 1009.0
20260506123003 67 311 3.0 11.0 0.00 0.00 0.00 77 1009.1
20260506121604 66 207 3.0 18.0 0.00 0.00 0.00 78 1009.0
20260506114601 66 101 3.0 17.0 0.00 0.00 0.00 78 1008.9
20260506113107 65 103 2.0 14.0 0.00 0.00 0.00 79 1008.7
20260506111558 65 209 1.0 11.0 0.00 0.00 0.00 80 1008.8
20260506104615 64 167 3.0 11.0 0.00 0.00 0.00 81 1008.7
20260506103054 64 127 3.0 13.0 0.00 0.00 0.00 81 1008.5
20260506101559 64 150 5.0 15.0 0.00 0.00 0.00 81 1008.6
20260506100052 64 192 0.0 15.0 0.00 0.00 0.00 81 1008.4
20260506094556 64 144 0.0 11.0 0.00 0.00 0.00 81 1008.5
20260506093053 64 150 2.0 12.0 0.00 0.00 0.00 80 1008.7
20260506091546 64 163 1.0 12.0 0.00 0.00 0.00 80 1008.5
20260506090045 65 213 1.0 10.0 0.00 0.00 0.00 79 1008.6
20260506084547 65 163 1.0 10.0 0.00 0.00 0.00 79 1008.8
20260506083041 66 202 0.0 10.0 0.00 0.00 0.00 78 1008.8
20260506081540 66 171 2.0 11.0 0.00 0.00 0.00 78 1008.8
20260506073043 66 202 0.0 7.0 0.00 0.00 0.00 78 1008.9
20260506071538 66 169 2.0 11.0 0.00 0.00 0.00 77 1008.9
20260506061531 67 171 2.0 13.0 0.00 0.00 0.00 75 1009.4
20260506044524 66 169 0.0 7.0 0.00 0.00 0.00 74 1009.9
20260506043021 66 156 1.0 11.0 0.00 0.00 0.00 73 1009.9
20260506041527 66 188 0.0 8.0 0.00 0.00 0.00 72 1010.0
20260506040015 66 133 0.0 6.0 0.00 0.00 0.00 72 1010.0
20260506034515 66 138 0.0 13.0 0.00 0.00 0.00 72 1009.9
20260506033014 67 146 1.0 10.0 0.00 0.00 0.00 70 1009.8
20260506031522 67 169 0.0 9.0 0.00 0.00 0.00 69 1009.7
20260506030018 68 142 0.0 12.0 0.00 0.00 0.00 66 1009.9
20260506024512 69 142 3.0 11.0 0.00 0.00 0.00 64 1009.9
20260506023011 70 174 1.0 11.0 0.00 0.00 0.00 62 1010.0
20260506021511 70 195 1.0 9.0 0.00 0.00 0.00 60 1009.9
20260506020014 71 165 0.0 10.0 0.00 0.00 0.00 59 1009.8
20260506014517 72 206 0.0 7.0 0.00 0.00 0.00 57 1009.7
20260506013022 72 133 2.0 14.0 0.00 0.00 0.00 56 1009.7
20260506011509 73 166 0.0 10.0 0.00 0.00 0.00 54 1009.4
20260506010008 73 180 1.0 10.0 0.00 0.00 0.00 53 1009.2
20260506004517 74 178 0.0 11.0 0.00 0.00 0.00 52 1009.2
20260506003006 74 210 1.0 15.0 0.00 0.00 0.00 51 1009.1
20260506001506 75 144 1.0 13.0 0.00 0.00 0.00 50 1008.9
20260506000015 76 155 5.0 17.0 0.00 0.00 0.00 49 1008.8
20260505234513 76 178 2.0 10.0 0.00 0.00 0.00 48 1008.6
20260505233005 77 227 1.0 13.0 0.00 0.00 0.00 45 1008.3
20260505231505 78 224 0.0 12.0 0.00 0.00 0.00 45 1008.4